Fort Drum, NY

6:03 PM EDT on July 26, 2017 (GMT -0400)
Wheeler-Sack Army Air Field

Weather History for KGTB - July, 2013

Change the Weather History Date:

Friday, July 5, 2013

  Actual Average Record
Temperature  
Mean Temperature 76 °F -  
Max Temperature 84 °F 73 °F 88 °F (2010)
Min Temperature 69 °F 55 °F 51 °F (2000)
Cooling Degree Days 12    
Growing Degree Days 26 (Base 50)    
Moisture  
Dew Point 69 °F    
Average Humidity 83    
Maximum Humidity 100    
Minimum Humidity 62    
Precipitation  
Precipitation 0.25 in - - ()
Sea Level Pressure  
Sea Level Pressure 30.11 in    
Wind  
Wind Speed 5 mph (SW)    
Max Wind Speed 10 mph    
Max Gust Speed 20 mph    
Visibility 9 miles    
Events Rain    
Averages and records for this station are not official NWS values.
T = Trace of Precipitation, MM = Missing Value Source: NWS Daily Summary

Daily Weather History Graph

Daily Weather History Graph

Search for Another Location

Airport or City:

Trip Planner

Search our weather history database for the weather conditions in past years. The results will help you decide how hot, cold, wet, or windy it might be!

Date:

Astronomy

Jul. 05, 2013 Rise Set
Actual Time 5:26 AM EDT 8:48 PM EDT
Civil Twilight 4:50 AM EDT 9:24 PM EDT
Nautical Twilight 4:03 AM EDT 10:11 PM EDT
Astronomical Twilight 3:04 AM EDT 11:09 PM EDT
Moon 3:26 AM EDT (7/5) 6:39 PM EDT (7/5)
Length of Visible Light 16h 34m
Length of Day
15h 22m
Waning Crescent, 6% of the Moon is Illuminated
Jul 5
Waning Crescent
Jul 8
New
Jul 15
First Quarter
Jul 22
Full
Jul 29
Last Quarter

Hourly Weather History & Observations

Time (EDT) Temp. Heat Index Dew Point Humidity Pressure Visibility Wind Dir Wind Speed Gust Speed Precip Events Conditions
12:58 AM 70.7 °F - 67.5 °F 89% 30.14 in 10.0 mi South 5.8 mph - N/A   Scattered Clouds
1:58 AM 69.6 °F - 66.2 °F 89% 30.13 in 10.0 mi South 4.6 mph - N/A   Clear
2:58 AM 71.1 °F - 65.8 °F 84% 30.13 in 10.0 mi South 3.5 mph - N/A   Mostly Cloudy
3:28 AM 71.6 °F - 66.2 °F 83% 30.15 in 9.0 mi SW 3.5 mph - N/A Rain Rain
3:33 AM 71.6 °F - 66.2 °F 83% 30.14 in 9.0 mi SW 5.8 mph - N/A Rain Light Rain
3:38 AM 71.6 °F - 66.2 °F 83% 30.14 in 10.0 mi West 3.5 mph - N/A Rain Light Rain
3:43 AM 71.6 °F - 68.0 °F 88% 30.14 in 10.0 mi WSW 2.3 mph - N/A   Scattered Clouds
3:58 AM 71.1 °F - 67.8 °F 89% 30.13 in 10.0 mi SSE 5.8 mph - 0.00 in   Mostly Cloudy
4:15 AM 69.8 °F - 68.0 °F 94% 30.14 in 8.0 mi West 1.2 mph - N/A Rain Light Rain
4:28 AM 71.6 °F - 68.0 °F 88% 30.13 in 10.0 mi South 4.6 mph - N/A   Mostly Cloudy
4:52 AM 69.8 °F - 68.0 °F 94% 30.14 in 10.0 mi SW 3.5 mph - N/A Rain Light Rain
4:58 AM 70.3 °F - 68.0 °F 92% 30.14 in 9.0 mi SSW 3.5 mph - 0.02 in Rain Light Rain
5:03 AM 69.8 °F - 68.0 °F 94% 30.13 in 3.0 mi SSE 4.6 mph - N/A Rain Heavy Rain
5:08 AM 69.8 °F - 68.0 °F 94% 30.14 in 3.0 mi Variable 2.3 mph - N/A Rain Light Rain
5:13 AM 69.8 °F - 68.0 °F 94% 30.14 in 8.0 mi SSW 2.3 mph - N/A Rain Light Rain
5:15 AM 69.8 °F - 68.0 °F 94% 30.14 in 10.0 mi SSW 3.5 mph - N/A   Mostly Cloudy
5:39 AM 69.8 °F - 69.8 °F 100% 30.15 in 2.5 mi West 5.8 mph - N/A Rain Light Rain
5:44 AM 69.8 °F - 68.0 °F 94% 30.15 in 0.8 mi SW 6.9 mph - N/A Rain Heavy Rain
5:54 AM 69.8 °F - 68.0 °F 94% 30.15 in 8.0 mi SW 4.6 mph - N/A   Light Drizzle
5:57 AM 69.8 °F - 68.0 °F 94% 30.15 in 10.0 mi SW 4.6 mph - N/A   Scattered Clouds
5:58 AM 69.8 °F - 68.0 °F 94% 30.13 in 10.0 mi SW 4.6 mph - 0.22 in   Scattered Clouds
6:58 AM 70.5 °F - 70.2 °F 99% 30.14 in 10.0 mi SW 2.3 mph - 0.00 in   Mostly Cloudy
7:58 AM 72.5 °F - 70.5 °F 93% 30.14 in 10.0 mi SSW 5.8 mph - N/A   Partly Cloudy
8:58 AM 76.8 °F - 68.5 °F 75% 30.13 in 10.0 mi SW 6.9 mph - N/A   Clear
9:58 AM 79.7 °F - 68.5 °F 69% 30.12 in 10.0 mi SW 5.8 mph - N/A   Clear
10:58 AM 80.8 °F 83.6 °F 68.4 °F 66% 30.12 in 10.0 mi Variable 5.8 mph - N/A   Clear
11:58 AM 81.5 °F 84.6 °F 68.7 °F 65% 30.12 in 10.0 mi West 6.9 mph - N/A   Scattered Clouds
12:58 PM 82.6 °F 87.3 °F 71.6 °F 69% 30.11 in 10.0 mi WSW 5.8 mph - N/A   Mostly Cloudy
1:31 PM 84.2 °F 88.4 °F 69.8 °F 62% 30.11 in 10.0 mi WSW 8.1 mph - N/A   Light Drizzle
1:38 PM 84.2 °F 88.4 °F 69.8 °F 62% 30.11 in 10.0 mi NW 8.1 mph - N/A   Partly Cloudy
1:58 PM 82.8 °F 86.7 °F 69.8 °F 65% 30.09 in 10.0 mi Variable 5.8 mph - 0.00 in   Partly Cloudy
2:45 PM 80.6 °F 83.2 °F 68.0 °F 65% 30.09 in 10.0 mi NNW 6.9 mph - N/A   Light Drizzle
2:58 PM 79.0 °F - 68.5 °F 70% 30.09 in 10.0 mi WNW 4.6 mph - 0.00 in Rain Light Rain
3:08 PM 75.2 °F - 69.8 °F 83% 30.11 in 10.0 mi WNW 5.8 mph - N/A Rain Light Rain
3:13 PM 75.2 °F - 69.8 °F 83% 30.10 in 10.0 mi WNW 5.8 mph - N/A Rain Light Rain
3:23 PM 75.2 °F - 69.8 °F 83% 30.10 in 10.0 mi WNW 4.6 mph - N/A   Scattered Clouds
3:58 PM 77.2 °F - 71.2 °F 82% 30.08 in 10.0 mi WNW 4.6 mph - 0.01 in   Clear
4:12 PM 77.0 °F - 69.8 °F 78% 30.10 in 10.0 mi West 5.8 mph - N/A   Light Drizzle
4:32 PM 77.0 °F - 69.8 °F 78% 30.09 in 10.0 mi WSW 4.6 mph - N/A   Clear
4:58 PM 80.1 °F 83.3 °F 70.3 °F 72% 30.07 in 10.0 mi SSW 8.1 mph - 0.00 in   Clear
5:58 PM 81.5 °F 84.9 °F 69.4 °F 67% 30.05 in 10.0 mi Variable 6.9 mph - N/A   Clear
6:58 PM 79.5 °F - 69.3 °F 71% 30.04 in 10.0 mi SSW 8.1 mph - N/A   Partly Cloudy
7:58 PM 78.1 °F - 67.5 °F 70% 30.04 in 10.0 mi WSW 10.4 mph 19.6 mph N/A   Partly Cloudy
8:58 PM 73.8 °F - 68.5 °F 84% 30.05 in 10.0 mi WSW 4.6 mph - N/A   Clear
9:08 PM 73.4 °F - 68.0 °F 83% 30.07 in 10.0 mi SW 4.6 mph - N/A   Light Drizzle
9:28 PM 73.4 °F - 68.0 °F 83% 30.07 in 10.0 mi SW 6.9 mph - N/A   Partly Cloudy
9:58 PM 73.8 °F - 68.5 °F 84% 30.06 in 10.0 mi SW 5.8 mph - 0.00 in   Partly Cloudy
10:58 PM 72.3 °F - 69.3 °F 90% 30.07 in 10.0 mi SSW 5.8 mph - N/A   Mostly Cloudy
11:58 PM 72.1 °F - 69.4 °F 91% 30.08 in 10.0 mi South 5.8 mph - N/A   Mostly Cloudy